sat.trackr.live / text

‹ back to catalog

STARLINK-3137

NORAD 49449 · 2021-104AT

PAYLOAD ACTIVE UNKNOWN

§ Identity

Operator
Country
US
Launch date
2021-11-13
Launch site
AFETR
Launch vehicle
Mass (kg)
RCS (m²)

Purposes: comms

External: N2YO · Heavens-Above · Gunter

§ Orbital elements

Epoch: 2026-05-24T21:31:33.220992Z

Period
93.06 min
Inclination
53.2157°
Eccentricity
0.0002786
Mean motion
15.47353181 rev/d
Perigee alt
422.6 km
Apogee alt
426.4 km
Semi-major
6,802.6 km
B*
8.6853e-4
RAAN
204.4085°
Arg perigee
356.0906°
Mean anomaly
4.0080°
Rev number
25,074

§ Raw data

STARLINK-31371 49449U 21104AT  26144.89691228  .00044937  00000+0  86853-3 0  99992 49449  53.2157 204.4085 0002786 356.0906   4.0080 15.47353181250748

JSON: /api/v1/satellites/49449 · /tle

For live sub-satellite position, see the globe view (requires WebGL).

§ Visibility from observer

Set your observer location to see the next 7 days of passes ≥ 10°. The values pass through the URL so the page stays shareable.

No JS? Fill the form by hand. The geolocation button needs JavaScript.